TimeBST,TemperatureF,Dew PointF,Humidity,Sea Level PressureIn,VisibilityMPH,Wind Direction,Wind SpeedMPH,Gust SpeedMPH,PrecipitationIn,Events,Conditions,WindDirDegrees,DateUTC
8:20 AM,42.8,41.0,93,30.12,-9999.0,NW,6.9,-,N/A,,Clear,310,2012-10-07 07:20:00
8:50 AM,44.6,44.6,100,30.15,-9999.0,NW,8.1,-,N/A,,Clear,320,2012-10-07 07:50:00
9:20 AM,46.4,46.4,100,30.15,-9999.0,NW,10.4,-,N/A,,Clear,320,2012-10-07 08:20:00
9:50 AM,48.2,46.4,93,30.15,6.2,NNW,6.9,-,N/A,,Partly Cloudy,330,2012-10-07 08:50:00
10:20 AM,50.0,48.2,94,30.18,-9999.0,NW,6.9,-,N/A,,Clear,320,2012-10-07 09:20:00
10:50 AM,51.8,50.0,94,30.18,-9999.0,NW,6.9,-,N/A,,Clear,310,2012-10-07 09:50:00
11:20 AM,53.6,50.0,88,30.18,-9999.0,NW,5.8,-,N/A,,Clear,320,2012-10-07 10:20:00
11:50 AM,55.4,51.8,88,30.21,6.2,NNW,6.9,-,N/A,,Partly Cloudy,330,2012-10-07 10:50:00
12:20 PM,57.2,50.0,77,30.21,6.2,NNW,4.6,-,N/A,,Partly Cloudy,330,2012-10-07 11:20:00
12:50 PM,59.0,48.2,67,30.21,6.2,Variable,2.3,-,N/A,,Partly Cloudy,0,2012-10-07 11:50:00
1:20 PM,59.0,48.2,67,30.21,6.2,Variable,2.3,-,N/A,,Partly Cloudy,0,2012-10-07 12:20:00
1:50 PM,57.2,48.2,72,30.21,6.2,ESE,4.6,-,N/A,,Partly Cloudy,120,2012-10-07 12:50:00
2:20 PM,59.0,46.4,63,30.21,6.2,SSE,3.5,-,N/A,,Partly Cloudy,150,2012-10-07 13:20:00
2:50 PM,57.2,46.4,67,30.21,6.2,ESE,5.8,-,N/A,,Partly Cloudy,120,2012-10-07 13:50:00
3:20 PM,57.2,44.6,63,30.21,6.2,SE,6.9,-,N/A,,Partly Cloudy,130,2012-10-07 14:20:00
3:50 PM,59.0,46.4,63,30.21,6.2,ESE,5.8,-,N/A,,Partly Cloudy,110,2012-10-07 14:50:00
4:20 PM,59.0,46.4,63,30.21,6.2,ESE,5.8,-,N/A,,Partly Cloudy,120,2012-10-07 15:20:00
4:50 PM,57.2,46.4,67,30.21,-9999.0,ESE,5.8,-,N/A,,Clear,110,2012-10-07 15:50:00
5:20 PM,55.4,46.4,72,30.21,-9999.0,ESE,6.9,-,N/A,,Clear,120,2012-10-07 16:20:00
5:50 PM,55.4,46.4,72,30.21,-9999.0,ESE,5.8,-,N/A,,Clear,110,2012-10-07 16:50:00
6:20 PM,53.6,48.2,82,30.21,-9999.0,ESE,6.9,-,N/A,,Clear,120,2012-10-07 17:20:00
6:50 PM,51.8,48.2,88,30.21,-9999.0,ESE,4.6,-,N/A,,Clear,110,2012-10-07 17:50:00